Location: Mesa Vista Observatory
(35.5777°N, 105.6987°W)
Time: 05:23:50
(UTC-06:00)

Explorer 7 - All Passes

Search period start: 26 September 2020 00:00
Search period end: 06 October 2020 00:00
Orbit: 484 x 679 km, 50.3° (Epoch: 26 September)

Date Brightness Start Highest point End Pass type
(mag) Time Alt. Az. Time Alt. Az. Time Alt. Az.
26 Sep - 01:00:55 10° S 01:04:15 21° SE 01:07:42 10° E night (unlit)
26 Sep - 02:39:57 10° WSW 02:44:27 60° NW 02:49:12 10° NE visible
26 Sep - 04:22:31 10° WNW 04:25:52 19° NNW 04:29:19 10° NNE visible
26 Sep - 06:05:30 10° NNW 06:08:04 14° N 06:10:38 10° NE visible
26 Sep - 07:46:00 10° NNW 07:50:04 25° NNE 07:54:06 10° E daylight
26 Sep - 09:26:14 10° NW 09:31:08 79° SW 09:35:52 10° SE daylight
26 Sep - 11:09:34 10° WSW 11:11:03 11° SW 11:12:30 10° SW daylight
27 Sep - 01:04:45 10° SSW 01:08:46 35° SE 01:13:02 10° ENE night (unlit)
27 Sep - 02:45:01 10° W 02:49:19 39° NNW 02:53:50 10° NE visible
27 Sep - 04:28:06 10° NW 04:31:01 16° NNW 04:33:59 10° NNE visible
27 Sep - 06:10:25 10° NNW 06:13:15 15° N 06:16:06 10° NE visible
27 Sep - 07:50:35 10° NW 07:55:03 34° NNE 07:59:28 10° E daylight
27 Sep - 09:31:06 10° WNW 09:35:49 48° SW 09:40:22 10° SSE daylight
28 Sep - 01:09:03 10° SW 01:13:23 60° SE 01:18:00 10° ENE night (unlit)
28 Sep - 02:50:18 10° W 02:54:16 28° NNW 02:58:25 10° NNE visible
28 Sep - 04:33:37 10° NW 04:36:11 14° N 04:38:47 10° NNE visible
28 Sep - 06:15:08 10° NNW 06:18:24 17° NNE 06:21:41 10° ENE visible
28 Sep - 07:55:11 10° NW 07:59:57 49° NE 08:04:38 10° ESE daylight
28 Sep - 09:36:12 10° WNW 09:40:24 29° SW 09:44:29 10° S daylight
28 Sep - 23:36:01 10° SSE 23:38:08 13° SE 23:40:19 10° E night (unlit)
29 Sep - 01:13:41 10° SW 01:18:06 82° NW 01:22:48 10° NE night (unlit)
29 Sep - 02:55:44 10° WNW 02:59:18 21° NNW 03:02:59 10° NNE visible
29 Sep - 04:38:58 10° NNW 04:41:23 14° N 04:43:49 10° NNE visible
29 Sep - 06:19:45 10° NNW 06:23:29 21° NNE 06:27:14 10° ENE visible
29 Sep - 07:59:51 10° NW 08:04:46 75° NE 08:09:35 10° SE daylight
29 Sep - 09:41:43 10° W 09:44:54 17° SW 09:48:01 10° SSW daylight
29 Sep - 23:39:11 10° S 23:42:36 23° SE 23:46:12 10° ENE night (unlit)
30 Sep - 01:18:34 10° WSW 01:22:53 52° NW 01:27:28 10° NE night (unlit)
30 Sep - 03:01:17 10° WNW 03:04:23 17° NNW 03:07:34 10° NNE visible
30 Sep - 04:44:02 10° NNW 04:46:35 14° N 04:49:09 10° NE visible
30 Sep - 06:24:20 10° NNW 06:28:31 27° NNE 06:32:42 10° E visible
30 Sep - 08:04:36 10° NW 08:09:29 69° SW 08:14:17 10° SE daylight
30 Sep - 23:43:09 10° SSW 23:47:09 40° SE 23:51:25 10° ENE night (unlit)
01 Oct - 01:23:42 10° W 01:27:47 35° NNW 01:32:05 10° NE night (unlit)
01 Oct - 03:06:52 10° NW 03:09:31 15° N 03:12:15 10° NNE visible
01 Oct - 04:48:51 10° NNW 04:51:45 15° NNE 04:54:39 10° NE visible
01 Oct - 06:28:54 10° NW 06:33:28 38° NNE 06:38:01 10° E visible
01 Oct - 08:09:31 10° WNW 08:14:08 42° SW 08:18:40 10° SSE daylight
01 Oct - 23:47:33 10° SW 23:51:47 70° SE 23:56:20 10° NE night (unlit)
02 Oct - 01:29:01 10° W 01:32:44 25° NNW 01:36:38 10° NNE night (unlit)
02 Oct - 03:12:21 10° NW 03:14:42 14° N 03:17:06 10° NNE visible
02 Oct - 04:53:32 10° NNW 04:56:53 18° NNE 05:00:15 10° ENE visible
02 Oct - 06:33:31 10° NW 06:38:19 55° NE 06:43:07 10° ESE visible
02 Oct - 08:14:42 10° WNW 08:18:42 25° SW 08:22:39 10° S daylight
02 Oct - 22:14:04 10° SSE 22:16:30 15° SE 22:19:01 10° E night (unlit)
02 Oct - 23:52:15 10° WSW 23:56:30 71° NW 00:01:05 10° NE night (unlit)
03 Oct - 01:34:30 10° WNW 01:37:47 19° NNW 01:41:11 10° NNE night (unlit)
03 Oct - 03:17:36 10° NNW 03:19:54 13° N 03:22:13 10° NNE visible
03 Oct - 04:58:07 10° NNW 05:01:56 23° NNE 05:05:48 10° ENE visible
03 Oct - 06:38:12 10° NW 06:43:06 85° NE 06:47:59 10° SE daylight
03 Oct - 08:20:26 10° W 08:23:12 15° SW 08:25:57 10° SSW daylight
03 Oct - 22:17:30 10° S 22:20:59 26° SE 22:24:40 10° ENE night (unlit)
03 Oct - 23:57:13 10° WSW 00:01:20 44° NNW 00:05:44 10° NE night (unlit)
04 Oct - 01:40:05 10° NW 01:42:53 16° NNW 01:45:46 10° NNE night (unlit)
04 Oct - 03:22:35 10° NNW 03:25:05 14° N 03:27:37 10° NE visible
04 Oct - 05:02:41 10° NW 05:06:56 30° NNE 05:11:13 10° E visible
04 Oct - 06:42:59 10° WNW 06:47:48 60° SW 06:52:35 10° SE daylight
04 Oct - 22:21:35 10° SSW 22:25:33 46° SE 22:29:47 10° ENE night (unlit)
05 Oct - 00:02:24 10° W 00:06:15 30° NNW 00:10:18 10° NE night (unlit)
05 Oct - 01:45:40 10° NW 01:48:02 14° N 01:50:28 10° NNE night (unlit)
05 Oct - 03:27:20 10° NNW 03:30:14 16° NNE 03:33:11 10° NE visible
05 Oct - 05:07:15 10° NW 05:11:50 41° NNE 05:16:29 10° ESE visible
05 Oct - 06:47:57 10° WNW 06:52:25 36° SW 06:56:52 10° SSE daylight
05 Oct - 22:26:04 10° SW 22:30:12 81° SE 22:34:39 10° NE night (unlit)
